sat.trackr.live / text

‹ back to catalog

STARLINK-5459

NORAD 55669 · 2023-021AT

PAYLOAD ACTIVE UNKNOWN

§ Identity

Operator
Country
US
Launch date
2023-02-17
Launch site
AFWTR
Launch vehicle
Mass (kg)
RCS (m²)

Purposes: comms

External: N2YO · Heavens-Above · Gunter

§ Orbital elements

Epoch: 2026-09-20T11:46:56.095392Z

Period
96.11 min
Inclination
70.0006°
Eccentricity
0.0003363
Mean motion
14.98338811 rev/d
Perigee alt
569.7 km
Apogee alt
574.4 km
Semi-major
6,950.2 km
B*
2.0113e-5
RAAN
33.3026°
Arg perigee
267.9847°
Mean anomaly
92.0927°
Rev number
19,845

§ Raw data

STARLINK-54591 55669U 23021AT  26263.49092703  .00000147  00000+0  20113-4 0  99942 55669  70.0006  33.3026 0003363 267.9847  92.0927 14.98338811198453

JSON: /api/v1/satellites/55669 · /tle

For live sub-satellite position, see the globe view (requires WebGL).

§ Visibility from observer

Set your observer location to see the next 7 days of passes ≥ 10°. The values pass through the URL so the page stays shareable.

No JS? Fill the form by hand. The geolocation button needs JavaScript.